{"data":{"norad_id":68164,"intl_designator":"2026-049Y","name":"STARLINK-37002","alt_names":[],"object_type":"PAYLOAD","status":"ACTIVE","operator":null,"country":"US","launch_date":"2026-03-13","launch_site_code":"AFWTR","launch_vehicle":null,"mission":null,"orbit_class":"UNKNOWN","rcs_meters":null,"size_class":null,"mass_kg":null,"dimensions":null,"purposes":["comms"],"wikipedia_slug":null,"has_3d_model":false,"image_url":null,"decayed_at":null,"tle_current":{"epoch":"2026-09-19T22:38:33.317088Z","epoch_age_seconds":104238,"freshness":"FRESH","line1":"1 68164U 26049Y   26262.94344117  .00013590  00000+0  42228-3 0  9995","line2":"2 68164  97.2843 282.8762 0001475  96.6939 263.4472 15.33461527 29415","mean_motion":15.33461527,"eccentricity":0.0001475,"inclination_deg":97.2843,"raan_deg":282.8762,"arg_perigee_deg":96.6939,"mean_anomaly_deg":263.4472,"bstar":0.00042228,"rev_number":2941,"period_min":93.905192575464,"perigee_km":464.48456662268,"apogee_km":466.50343776832,"semimajor_km":6843.6310021955,"source":"CELESTRAK","updated_at":"2026-09-20T09:00:43.797036Z"}}}